Weather History for Dallas/Ft Worth, TX

Change the Weather History Date:

Wednesday, June 26, 2013

  Actual Average Record
Temperature  
Mean Temperature 88 °F 83 °F  
Max Temperature 98 °F 93 °F 113 °F (1980)
Min Temperature 77 °F 73 °F 60 °F (1928)
Degree Days  
Heating Degree Days 0 0  
Month to date heating degree days 0 0  
Since 1 June heating degree days 0 0  
Since 1 July heating degree days 2045 2284  
Cooling Degree Days 23 18  
Month to date cooling degree days 446 417  
Year to date cooling degree days 835 839  
Since 1 June cooling degree days 446 417  
Growing Degree Days 38 (Base 50)    
Moisture  
Dew Point 68 °F    
Average Humidity 58    
Maximum Humidity 76    
Minimum Humidity 40    
Precipitation  
Precipitation 0.00 in 0.11 in 2.54 in (2007)
Month to date precipitation 2.14 3.39  
Year to date precipitation 15.30 19.64  
Sea Level Pressure  
Sea Level Pressure 29.86 in    
Wind  
Wind Speed 15 mph (South)    
Max Wind Speed 24 mph    
Max Gust Speed 31 mph    
Visibility 10 miles    
Events      
T = Trace of Precipitation, MM = Missing Value Source: NWS Daily Summary

Daily Weather History Graph

Daily Weather History Graph

Search for Another Location

Airport:

Trip Planner

Search our weather history database for the weather conditions in past years. The results will help you decide how hot, cold, wet, or windy it might be!

Date:

Astronomy

Jun. 26, 2013 Rise Set
Actual Time 6:21 AM CDT 8:40 PM CDT
Civil Twilight 5:52 AM CDT 9:09 PM CDT
Nautical Twilight 5:17 AM CDT 9:44 PM CDT
Astronomical Twilight 4:39 AM CDT 10:22 PM CDT
Moon 11:18 PM CDT (6/26) 10:02 AM CDT (6/26)
Length of Visible Light 15h 16m
Length of Day
14h 18m
Waning Gibbous, 85% of the Moon is Illuminated
Jun 26
Waning Gibbous
Jun 29
Last Quarter
Jul 8
New
Jul 15
First Quarter
Jul 22
Full

Hourly Weather History & Observations

Time (CDT) Temp. Heat Index Dew Point Humidity Pressure Visibility Wind Dir Wind Speed Gust Speed Precip Events Conditions
12:53 AM 86.0 °F 86.3 °F 62.1 °F 44% 29.83 in 10.0 mi South 16.1 mph - N/A   Clear
1:53 AM 84.0 °F 84.9 °F 63.0 °F 49% 29.83 in 10.0 mi South 15.0 mph 25.3 mph N/A   Partly Cloudy
2:53 AM 82.0 °F 83.8 °F 64.9 °F 56% 29.83 in 10.0 mi South 16.1 mph - N/A   Partly Cloudy
3:53 AM 80.1 °F 82.3 °F 66.9 °F 64% 29.83 in 10.0 mi South 19.6 mph - N/A   Partly Cloudy
4:53 AM 79.0 °F - 66.9 °F 66% 29.83 in 10.0 mi South 19.6 mph 25.3 mph N/A   Partly Cloudy
5:53 AM 78.1 °F - 68.0 °F 71% 29.85 in 10.0 mi South 17.3 mph - N/A   Scattered Clouds
6:53 AM 77.0 °F - 69.1 °F 76% 29.88 in 10.0 mi South 17.3 mph - N/A   Scattered Clouds
7:53 AM 78.1 °F - 70.0 °F 76% 29.91 in 10.0 mi South 19.6 mph 25.3 mph N/A   Scattered Clouds
8:53 AM 80.1 °F 82.9 °F 69.1 °F 69% 29.92 in 10.0 mi South 19.6 mph 27.6 mph N/A   Scattered Clouds
9:53 AM 84.0 °F 87.8 °F 69.1 °F 61% 29.92 in 10.0 mi South 19.6 mph - N/A   Partly Cloudy
10:53 AM 87.1 °F 91.3 °F 69.1 °F 55% 29.93 in 10.0 mi South 18.4 mph - N/A   Partly Cloudy
11:53 AM 89.1 °F 94.1 °F 70.0 °F 53% 29.92 in 10.0 mi SSE 15.0 mph 24.2 mph N/A   Partly Cloudy
12:53 PM 91.0 °F 95.6 °F 69.1 °F 48% 29.91 in 10.0 mi SSE 17.3 mph - N/A   Partly Cloudy
1:53 PM 93.9 °F 99.1 °F 69.1 °F 44% 29.89 in 10.0 mi South 13.8 mph 23.0 mph N/A   Partly Cloudy
2:53 PM 96.1 °F 101.6 °F 69.1 °F 41% 29.86 in 10.0 mi South 20.7 mph 26.5 mph N/A   Partly Cloudy
3:53 PM 96.1 °F 101.6 °F 69.1 °F 41% 29.86 in 10.0 mi SSE 15.0 mph 24.2 mph N/A   Partly Cloudy
4:53 PM 97.0 °F 102.2 °F 68.0 °F 39% 29.85 in 10.0 mi South 11.5 mph - N/A   Partly Cloudy
5:53 PM 97.0 °F 102.2 °F 68.0 °F 39% 29.83 in 10.0 mi South 10.4 mph - N/A   Partly Cloudy
6:53 PM 96.1 °F 101.0 °F 68.0 °F 40% 29.82 in 10.0 mi South 16.1 mph - N/A   Partly Cloudy
7:53 PM 93.9 °F 97.0 °F 66.0 °F 40% 29.82 in 10.0 mi South 12.7 mph - N/A   Partly Cloudy
8:53 PM 91.9 °F 94.5 °F 66.0 °F 42% 29.82 in 10.0 mi South 10.4 mph - N/A   Partly Cloudy
9:53 PM 89.1 °F 92.9 °F 68.0 °F 50% 29.84 in 10.0 mi South 8.1 mph - N/A   Partly Cloudy
10:53 PM 84.9 °F 87.6 °F 66.9 °F 55% 29.87 in 10.0 mi SSE 8.1 mph - N/A   Partly Cloudy
11:53 PM 88.0 °F 90.3 °F 66.0 °F 48% 29.88 in 10.0 mi SSE 10.4 mph - N/A   Partly Cloudy